Location: Honolulu
(21.3069°N, 157.8583°W)
Time: 07:18:06
(UTC-10:00)

Tiros 1 despin weight - Pass Details

Date: 13 May 2026
Orbit: 554 x 591 km, 48.2° (Epoch: 10 June)

Event Time Altitude Azimuth Distance (km) Brightness Sun altitude
Exits shadow 05:07:33 15° 256° (WSW) 1,577 ? -10.8°
Maximum altitude 05:10:38 35° 317° (NW) 922 ? -10.2°
Drops below altitude 10° 05:14:31 10° 24° (NNE) 1,843 ? -9.4°
Sets 05:16:54 0° 33° (NNE) 2,734 ? -8.8°
